Terug naar catalogus

STARLINK-37437

ActiefCommunicatieVLEO
NORAD 69170·PAYLOAD·🇺🇸 United States

Gelanceerd May 21, 2026 vanaf Cape Canaveral Space Force Station

Loading…

Volgende Passages (komende 24 uur)

TLE

VersSource: CelesTrak SupGP

Epoch: Sep 14, 2026, 14:55 UTC

1 69170C 26111Y   26257.62201389 -.00013167  00000+0 -38898-3 0  2572
2 69170  53.1569  93.0317 0001289  96.1195  82.4457 15.34400195    11

Volg STARLINK-37437 in realtime met AllMySat

Download on the App Store